This is the latest recevied weather packets stored in our database for station/object N5CNB. If no packets are shown the sender has not sent any weather packets the latest 10 day(s).
| Time | Temp. | Humidity | Pressure | Rain* | Wind** | Luminosity | Snow |
|---|---|---|---|---|---|---|---|
| 1777885222 | 14.44° C | 81% | 1016.3 hPa | 0 mm | - | - | - |
| 1777884327 | 15° C | 81% | 1016.2 hPa | 0 mm | - | - | - |
| 1777883424 | 15° C | 81% | 1016.3 hPa | 0 mm | - | - | - |
| 1777882520 | 15° C | 82% | 1016.4 hPa | 0 mm | - | - | - |
| 1777881625 | 15° C | 81% | 1016.5 hPa | 0 mm | - | - | - |
| 1777880726 | 15.56° C | 81% | 1016.6 hPa | 0 mm | - | - | - |
| 1777879827 | 15.56° C | 82% | 1017 hPa | 0 mm | - | - | - |
| 1777878912 | 15° C | 82% | 1017.4 hPa | 0 mm | - | - | - |
| 1777878033 | 15° C | 82% | 1017.7 hPa | 0 mm | - | - | - |
| 1777877120 | 15° C | 82% | 1017.9 hPa | 0 mm | - | - | - |
| 1777876227 | 15.56° C | 81% | 1018.1 hPa | 0 mm | - | - | - |
| 1777875328 | 16.11° C | 80% | 1018.3 hPa | 0 mm | - | - | - |
| 1777874420 | 16.11° C | 79% | 1018.1 hPa | 0 mm | - | - | - |
| 1777873520 | 16.11° C | 79% | 1018.1 hPa | 0 mm | - | - | - |
| 1777872642 | 16.11° C | 79% | 1018.3 hPa | 0 mm | - | - | - |
| 1777871726 | 16.11° C | 79% | 1018.5 hPa | 0 mm | - | - | - |
| 1777870828 | 16.11° C | 79% | 1018.8 hPa | 0 mm | - | - | - |
| 1777869925 | 16.11° C | 78% | 1019 hPa | 0 mm | - | - | - |
| 1777869026 | 16.67° C | 77% | 1018.9 hPa | 0 mm | - | - | - |
| 1777868125 | 16.67° C | 75% | 1018.9 hPa | 0 mm | - | - | - |
| 1777867226 | 17.22° C | 74% | 1018.9 hPa | 0 mm | - | - | - |
| 1777866344 | 17.78° C | 72% | 1019.2 hPa | 0 mm | - | - | - |
| 1777865421 | 17.78° C | 71% | 1019.1 hPa | 0 mm | - | - | - |
| 1777864503 | 18.33° C | 69% | 1018.6 hPa | 0 mm | - | - | - |
| 1777863625 | 18.89° C | 67% | 1018.7 hPa | 0 mm | - | - | - |
* Rain latest hour (hover to see other rain measurements)
** Current wind speed in m/s (hover to see current wind gust speed)